User: anonymous   Login
Location: Newark
(11.5710°N, 104.9241°E)
Time: 04:22:55
(UTC+00:00)
Language:

nSIGHT-1 - Orbit

View from above orbital plane
View from above orbital plane
View from above satellite
View from above satellite

Ground track
Ground track

The orbit data is extracted from the following two-line orbital elements,

1 42726U 98067MF  20092.69428149  .00257790  39307-4  46944-3 0  9993
2 42726  51.6254 255.7989 0006650 278.4489  81.5767 16.00896969163367
Epoch (UTC): 01 April 2020 16:39:45
Eccentricity: 0.0006650
inclination: 51.6254°
perigee height: 267 km
apogee height: 276 km
right ascension of ascending node: 255.7989°
argument of perigee: 278.4489°
revolutions per day: 16.00896969
mean anomaly at epoch: 81.5767°
orbit number at epoch: 16336

The dashed part of the orbit path shows where the satellite is in the earth's shadow,  

DLR